Location: Dittelbrunn
(50.0738°N, 10.2196°E)
Time: 03:13:52
(UTC+00:00)

Cosmos 1437 - Pass Details

Date: 18 September 2020
Orbit: 366 x 369 km, 81.2° (Epoch: 19 October)

Event Time Altitude Azimuth Distance (km) Brightness Sun altitude
Rises 18:10:29 0° 347° (NNW) 2,253 6.8 -8.0°
Reaches altitude 10° 18:12:29 10° 346° (NNW) 1,396 5.8 -8.3°
Maximum altitude 18:15:30 81° 260° (W) 387 2.6 -8.8°
Drops below altitude 10° 18:18:30 10° 172° (S) 1,382 5.2 -9.3°
Sets 18:20:28 0° 171° (S) 2,227 6.2 -9.6°
